Theta_e
318 318 318 317 317 317 317 318 318 318 319 320 320 320 321 321 322 322 323 323 323 324 324 324 326 326 326 327 328 327 324 312 307 311 307 309 321 337 339 340 339 337 333 308 303 302 300 298 301 300 300 297 301 298 300 302 300 294 289 284 285 285 288 289 290 288 290 292 292 295 294 293 294 296 298 296 296 296 296 297 298 300 299 299 300 302 304 305
316 316 316 315 316 316 317 317 317 318 319 319 319 320 320 321 321 322 322 323 323 323 324 324 325 325 327 326 327 326 318 310 303 304 307 318 334 339 340 339 338 333 322 305 303 300 299 299 299 298 297 299 301 300 299 299 297 291 286 284 286 285 292 291 292 291 292 293 292 294 292 293 295 294 297 293 294 294 294 295 296 297 299 301 302 302 303 304
315 315 315 315 315 316 316 316 317 318 318 318 319 319 319 320 321 322 322 322 322 323 324 324 325 325 326 327 325 325 318 313 303 301 305 334 338 339 340 338 335 330 307 307 306 304 303 301 299 299 296 296 295 300 296 298 298 293 287 285 287 288 293 293 293 294 294 293 293 293 295 293 296 296 297 295 291 293 293 294 295 295 297 298 300 301 302 303
314 313 314 314 314 315 316 316 317 317 318 317 318 319 319 320 321 321 322 322 322 323 323 324 325 325 325 325 326 318 309 304 302 301 314 333 336 339 339 337 335 320 310 309 307 306 302 301 298 300 297 293 294 293 294 296 293 294 288 285 291 290 291 296 293 295 293 293 293 293 293 294 294 294 296 291 293 293 292 294 294 296 297 298 299 300 300 301
315 314 313 313 314 314 314 315 316 317 318 318 318 318 319 319 320 321 322 322 322 323 323 324 324 325 325 325 324 314 300 294 300 308 316 333 337 338 337 336 333 314 308 307 304 301 300 298 298 295 296 296 291 291 294 295 295 289 292 289 290 291 293 295 294 293 292 292 292 292 293 294 297 296 293 293 291 288 293 295 294 298 298 299 299 299 300 300
313 313 313 314 314 315 314 314 315 316 318 318 318 318 319 320 320 321 321 321 322 323 323 324 324 324 325 324 312 311 300 288 302 309 328 334 335 335 334 332 329 310 306 302 303 301 300 299 296 294 291 291 292 292 294 295 297 291 292 292 292 292 294 295 294 294 293 294 292 292 294 295 294 295 293 293 293 292 294 296 297 298 299 300 300 299 299 299
314 313 314 313 313 314 314 314 315 316 317 317 318 318 319 320 320 320 320 321 322 322 323 324 324 325 324 322 310 303 297 300 308 315 325 333 333 333 330 323 320 305 302 302 301 301 297 296 295 295 290 291 292 292 296 294 293 290 292 293 297 294 296 294 296 293 291 292 294 294 295 296 294 295 294 295 295 296 296 297 297 298 299 299 298 298 299 299
314 313 314 313 313 312 313 313 314 315 316 317 317 318 319 320 320 319 320 321 322 322 323 323 324 324 321 307 305 296 301 301 307 315 324 329 320 318 314 309 305 305 303 302 302 300 297 297 296 295 292 292 296 295 295 294 293 292 294 293 295 295 295 294 293 292 292 294 294 295 295 294 293 295 295 295 295 296 296 297 297 297 297 297 298 298 298 299
315 314 313 312 311 312 312 313 313 315 315 317 317 318 318 319 319 319 320 321 321 322 322 324 323 323 321 305 299 297 294 304 315 319 318 316 312 305 306 310 305 305 303 301 300 302 300 297 297 299 295 294 296 296 294 295 291 294 295 294 294 295 295 294 295 293 293 296 294 295 293 292 292 295 294 294 295 296 296 296 296 297 296 296 296 297 297 298
315 315 314 313 313 312 313 314 313 314 315 316 317 317 318 319 319 319 319 321 321 322 322 323 323 321 313 303 293 291 297 309 314 319 317 309 306 307 305 306 305 304 305 302 300 300 300 299 299 300 297 296 297 294 294 293 292 294 294 294 295 295 294 294 295 294 293 296 294 294 292 294 293 295 291 294 295 295 296 295 295 296 295 295 296 296 296 297
314 314 314 314 314 313 313 314 314 314 315 316 317 317 318 318 318 319 320 321 321 322 323 323 323 316 307 297 293 290 307 317 317 311 308 308 307 306 306 305 306 304 303 302 302 303 302 300 301 300 298 296 296 294 294 296 295 294 294 295 293 291 293 293 293 293 294 296 293 294 293 292 292 294 291 294 295 296 295 294 294 294 294 295 295 295 296 296
315 314 314 315 314 314 314 314 315 315 315 316 316 317 318 318 319 319 320 321 321 322 323 323 322 311 301 294 293 295 308 311 311 308 309 310 308 307 306 307 305 307 306 303 305 305 304 304 301 300 296 300 293 295 296 295 296 295 295 293 290 291 294 293 294 293 293 295 293 294 294 291 291 290 291 295 296 295 294 293 293 294 294 294 294 294 294 294
315 315 315 315 315 315 315 315 315 315 315 316 316 317 318 318 318 319 320 321 321 322 323 323 318 312 301 296 296 302 305 308 310 309 308 307 306 306 306 307 307 305 305 303 303 305 304 300 298 299 299 295 294 293 296 297 295 296 293 292 291 289 289 294 294 293 294 295 292 294 286 287 288 291 292 295 295 294 293 293 293 293 293 293 293 293 293 294
317 316 315 315 315 315 315 316 317 316 315 315 316 316 317 318 318 319 321 321 322 322 323 322 312 303 299 293 303 306 310 314 310 309 308 308 305 306 305 305 303 303 305 303 304 303 305 300 300 299 301 296 296 301 295 292 293 293 292 289 287 286 286 292 292 292 294 294 292 294 287 286 288 289 291 294 295 295 293 293 293 293 293 292 292 292 293 294
318 317 317 315 315 315 315 316 316 316 316 316 315 315 317 317 318 319 322 322 322 323 323 319 309 302 295 297 308 313 325 311 309 307 308 307 304 304 305 305 304 302 303 303 305 304 302 302 301 296 296 297 298 296 288 288 288 290 289 284 283 287 284 290 292 293 294 294 293 293 285 289 292 291 292 294 294 294 293 293 293 293 293 293 292 292 292 293
318 317 317 316 316 315 316 315 315 315 315 315 315 315 317 317 318 319 322 322 323 322 312 312 307 297 293 292 306 321 308 305 306 306 306 308 305 304 303 303 304 301 302 302 303 302 302 300 298 295 295 296 290 285 286 288 288 284 288 282 286 286 284 290 294 292 292 292 293 293 288 287 291 289 291 293 294 293 293 292 292 293 293 293 293 292 291 292
318 317 317 317 317 316 316 316 316 315 315 315 316 316 317 318 319 320 321 322 317 316 312 305 303 300 293 298 312 304 302 305 308 308 308 307 307 304 303 303 302 302 302 303 301 301 300 299 297 297 293 291 288 287 285 280 282 283 285 286 283 287 286 286 289 292 292 292 289 291 289 288 290 289 291 292 293 292 292 292 293 293 293 293 292 292 291 291
319 318 318 317 317 316 316 316 316 316 316 316 315 316 314 319 321 319 318 316 311 309 309 313 306 296 294 299 296 299 305 306 308 307 307 307 304 302 300 301 299 298 298 299 299 298 298 296 293 291 290 289 291 285 283 281 284 283 286 286 286 287 287 288 289 293 292 292 290 289 288 290 292 290 291 292 292 293 293 293 293 292 292 292 292 292 291 291
319 318 318 318 317 317 316 316 316 316 317 317 317 319 320 320 314 310 309 310 299 294 292 295 293 287 286 294 300 306 308 308 307 306 306 306 306 303 302 300 299 299 295 293 295 297 294 293 292 288 288 287 289 290 288 287 287 287 286 284 283 288 286 287 288 290 293 290 289 288 289 291 292 292 290 291 292 292 294 292 291 292 292 292 292 292 291 291
319 319 318 318 317 317 316 316 316 316 316 314 313 310 304 303 297 300 304 305 299 293 294 295 297 295 299 299 303 306 309 305 304 304 306 306 304 302 301 300 298 296 294 293 294 295 292 288 287 286 289 291 290 291 292 291 290 288 287 286 286 287 287 288 290 291 291 291 288 290 290 289 290 291 291 292 292 291 291 291 291 292 292 292 292 292 291 290
319 319 319 318 318 317 317 316 315 317 317 315 313 306 292 297 288 287 296 302 302 304 300 299 300 295 298 302 303 305 303 302 303 303 304 306 301 301 297 298 293 293 292 292 293 296 292 288 288 291 293 291 292 291 291 291 290 290 289 287 287 285 287 288 293 292 291 291 286 286 287 289 290 292 292 291 290 291 292 291 291 292 292 292 292 291 290 291
319 319 319 318 318 318 317 315 316 317 318 315 312 306 305 299 299 302 299 294 298 303 303 301 300 300 302 303 304 303 300 298 301 302 305 305 301 298 295 294 290 292 291 292 292 292 289 288 292 294 294 291 291 290 290 290 290 288 288 286 286 286 287 289 290 290 291 291 288 287 288 290 291 292 293 291 292 293 293 294 294 293 292 291 291 291 290 290
319 319 319 318 318 318 317 316 317 317 313 311 308 308 305 308 307 304 302 296 295 300 301 300 298 300 300 303 305 304 299 295 296 299 301 303 298 297 295 293 291 289 291 292 291 285 286 286 293 295 292 292 291 291 289 289 289 287 286 285 286 284 288 286 287 289 291 290 287 287 288 290 292 293 294 295 292 291 290 293 293 293 293 292 292 292 291 290
318 318 318 318 318 318 317 317 318 315 311 309 307 305 307 307 307 307 301 293 291 294 302 302 301 298 298 300 304 303 298 296 298 299 303 301 298 295 295 293 291 290 291 292 291 290 289 291 293 293 292 292 291 290 289 288 287 286 288 286 285 287 286 288 287 291 289 290 288 289 289 290 292 293 294 290 289 290 291 291 291 291 292 292 291 291 292 291
318 318 318 318 318 318 317 318 312 309 307 309 307 310 310 309 309 310 296 288 286 290 300 303 302 300 299 305 304 302 297 297 297 301 304 302 296 295 294 295 291 290 290 291 291 289 289 292 293 292 290 291 291 289 288 290 285 287 286 290 289 287 289 287 288 290 284 284 285 289 282 279 282 286 290 289 286 288 288 289 290 290 290 291 291 291 290 291
318 318 318 318 318 317 319 310 309 308 309 306 306 307 311 309 309 310 292 284 281 285 295 292 304 298 306 299 303 299 298 295 296 302 304 302 305 298 296 294 293 290 290 290 290 288 290 292 294 291 291 289 289 289 288 291 287 285 287 288 290 289 288 288 288 287 282 280 287 288 283 281 282 287 287 286 287 288 288 288 289 288 289 290 291 291 290 290
318 317 318 318 317 318 310 303 310 309 303 304 310 310 308 309 308 307 290 280 279 291 290 296 296 295 305 299 301 296 287 288 300 302 302 304 302 303 294 292 293 293 293 292 289 288 292 291 292 291 290 289 287 287 290 292 289 284 286 288 289 288 288 287 287 288 284 283 286 287 282 282 286 286 292 290 288 289 289 289 288 288 288 289 290 290 290 290
318 318 318 318 317 317 310 310 309 306 305 307 308 311 310 310 308 301 287 275 276 295 292 292 298 305 303 301 301 297 291 296 294 298 299 300 301 299 296 291 294 293 293 292 285 288 291 289 289 289 289 288 289 289 289 292 289 285 289 288 288 289 286 286 287 284 285 284 282 283 286 284 282 282 285 287 288 291 292 291 288 288 288 289 289 290 290 290
318 318 317 317 317 318 317 312 308 306 309 310 309 312 313 310 303 290 281 275 291 292 304 296 307 301 296 298 297 295 294 294 291 295 299 301 301 297 292 291 292 293 293 294 290 289 293 292 293 294 292 289 289 289 290 293 289 290 289 289 288 287 286 283 282 286 281 281 281 283 286 281 285 283 286 285 286 289 291 291 289 289 289 288 288 289 289 289
318 318 317 316 315 315 314 315 312 313 310 311 313 312 309 304 295 286 279 273 295 288 296 297 297 294 296 294 291 295 294 293 293 297 298 296 298 299 298 296 293 292 292 291 290 289 294 294 294 293 290 291 290 290 287 291 291 291 290 290 287 284 282 280 280 279 281 277 283 285 286 286 281 283 287 286 287 288 288 287 287 288 288 288 289 289 289 289
318 318 317 316 310 311 313 308 312 315 313 311 312 309 305 295 285 280 274 283 291 293 293 293 292 296 293 292 289 291 292 292 295 296 294 297 295 295 296 294 294 288 286 286 287 287 291 292 293 291 293 290 291 290 289 290 290 292 285 283 284 284 280 277 275 277 276 277 279 285 287 287 281 279 283 288 287 287 289 288 286 287 288 289 288 288 288 289
317 318 318 314 313 315 308 307 314 316 314 312 310 306 298 285 288 280 280 291 285 287 291 288 290 292 293 293 291 292 292 292 293 294 293 292 291 293 293 290 290 284 283 286 285 288 287 289 289 292 293 294 288 289 288 286 288 289 287 288 283 276 274 274 272 275 274 278 281 280 284 282 284 287 285 287 290 291 290 291 290 288 288 289 288 288 288 288
317 317 317 315 314 312 313 315 316 315 314 311 308 303 291 284 278 286 285 287 283 291 290 292 292 293 293 291 290 291 291 290 291 292 293 292 291 292 292 292 292 288 282 285 286 286 286 284 289 290 292 293 294 290 285 285 287 287 288 284 281 275 274 268 269 269 272 276 279 281 283 282 281 286 292 295 295 289 287 287 288 289 289 289 289 288 288 287
317 317 314 314 314 314 315 315 316 315 312 309 304 297 291 281 281 293 288 288 290 291 292 290 292 292 293 290 290 293 289 290 292 291 293 289 289 288 290 292 291 291 287 285 285 285 280 280 287 290 288 292 295 295 293 288 288 290 287 290 286 279 273 272 271 274 275 274 276 278 279 276 279 284 287 286 285 285 285 286 287 287 288 288 288 288 287 286
317 316 315 314 313 315 315 316 316 315 312 307 300 292 283 281 287 286 287 288 290 292 290 294 292 290 289 288 289 293 291 288 291 291 289 289 287 287 288 291 293 292 288 287 285 282 286 284 284 292 289 292 293 292 290 288 287 285 284 286 283 285 283 281 274 272 272 272 273 275 279 280 284 285 284 284 284 285 284 286 286 286 286 287 287 287 287 287
315 314 315 311 310 313 315 316 315 315 310 303 294 287 284 287 285 291 289 295 293 290 290 292 287 287 287 287 289 291 294 290 290 290 287 288 288 289 291 290 292 294 290 287 286 283 283 281 285 288 289 289 290 290 292 291 286 285 287 285 287 286 288 281 275 276 275 272 278 275 280 280 283 286 285 285 285 286 285 285 285 285 285 286 287 287 287 287
311 313 307 311 311 314 315 316 315 312 308 301 292 285 290 291 294 291 296 293 294 294 291 288 287 288 285 286 286 289 291 291 289 288 286 289 289 291 288 291 294 294 296 292 287 289 285 281 287 286 288 289 287 288 288 288 289 286 283 286 287 286 285 282 277 270 268 272 275 277 280 280 281 282 281 285 284 285 284 283 284 284 284 286 286 286 287 286
311 310 309 308 312 315 316 316 314 310 305 298 289 291 294 290 297 294 296 294 294 296 290 289 286 291 285 287 286 288 289 289 287 288 286 289 287 294 292 290 293 295 296 294 291 289 290 284 285 284 286 288 287 291 290 289 288 288 285 287 289 281 280 280 275 273 270 271 273 276 277 279 282 285 282 285 284 287 287 283 283 284 284 285 286 286 286 286
310 308 302 309 314 315 315 316 312 306 300 293 289 288 294 294 297 295 298 297 296 293 291 289 288 289 289 287 286 288 290 286 287 286 285 286 286 291 293 295 292 295 296 296 292 288 290 285 283 285 286 287 287 288 284 285 290 287 288 287 285 282 275 278 281 275 275 272 269 276 276 282 283 285 285 288 288 288 288 283 285 286 286 286 286 286 286 286
306 302 300 311 314 315 315 313 307 303 298 289 289 289 296 293 296 298 298 299 295 293 291 291 289 288 289 289 290 288 288 287 287 287 286 286 289 292 292 296 293 292 295 297 294 294 287 287 278 282 284 286 284 286 286 288 286 284 285 284 285 281 283 281 280 278 277 270 269 274 278 277 280 286 288 291 290 289 288 288 287 287 287 287 287 287 287 286
308 302 302 312 314 315 313 307 300 295 294 295 294 292 294 293 296 297 300 302 299 299 295 291 291 290 289 288 288 290 288 287 286 285 287 286 289 284 291 294 294 293 294 295 293 291 287 284 284 279 282 282 284 284 287 288 290 289 289 286 288 284 280 277 279 279 274 277 275 270 279 283 283 285 288 289 288 288 288 289 289 288 287 287 287 287 287 287
303 295 300 313 314 313 306 296 296 299 295 289 290 294 292 300 294 296 298 300 300 297 297 294 291 290 290 292 292 290 290 288 288 287 286 288 291 289 290 296 296 296 294 289 292 296 293 286 284 279 282 285 284 286 285 286 287 287 287 285 288 288 285 279 278 276 278 282 278 275 272 284 285 285 285 286 285 287 288 288 289 288 287 287 287 288 288 288
301 297 308 312 314 310 302 294 296 295 293 294 297 295 298 296 296 296 297 299 296 299 296 294 293 291 291 291 290 292 293 288 290 287 287 289 290 293 290 294 295 295 296 290 294 292 294 289 288 285 284 283 283 284 285 284 287 287 286 282 286 287 287 286 284 281 283 278 279 275 277 282 285 285 284 284 283 284 286 287 289 288 287 287 287 287 287 287
301 299 302 311 313 310 299 289 288 290 292 295 295 294 298 296 296 295 295 297 296 297 296 294 294 295 293 292 291 291 294 288 291 291 288 288 288 290 289 293 296 294 295 292 292 296 290 287 289 285 281 281 281 284 285 286 287 284 284 287 287 288 287 284 283 282 281 281 282 281 279 279 286 283 282 283 284 285 286 286 287 287 286 287 287 287 287 287
299 300 299 303 310 307 295 297 293 290 291 291 292 291 293 294 297 297 297 296 299 297 296 295 298 295 295 294 293 292 294 293 289 293 293 288 290 290 290 292 296 295 297 294 297 300 292 289 288 284 281 279 278 278 279 282 285 284 282 284 287 288 286 286 285 283 281 282 284 283 284 285 284 285 286 284 284 285 284 285 285 287 287 287 286 287 286 286
296 288 295 299 304 303 302 303 298 294 291 290 289 291 293 291 294 297 299 298 299 299 299 295 295 297 294 293 292 291 292 294 292 289 291 290 288 288 288 288 290 296 295 294 295 297 287 288 291 290 287 285 287 285 286 287 283 283 283 287 287 288 290 289 288 285 283 282 283 287 287 288 287 286 286 287 284 286 285 284 286 286 285 287 287 287 287 287
295 290 291 288 298 299 297 297 297 296 291 294 287 290 288 291 293 294 300 293 298 298 296 296 296 294 293 294 292 292 293 293 291 289 290 290 286 286 290 290 291 291 293 294 295 290 287 288 290 291 290 291 287 283 285 290 286 287 285 285 287 287 288 287 286 285 286 283 283 287 286 287 289 288 288 287 285 284 284 285 285 285 286 287 287 287 288 286
291 292 295 297 292 288 291 293 297 296 296 295 290 293 290 289 291 289 295 298 298 299 295 292 295 297 296 295 294 288 289 290 289 291 289 287 287 289 289 291 290 291 291 292 292 293 289 289 290 289 289 291 288 285 285 287 287 287 287 286 285 287 287 285 286 288 288 286 285 288 289 288 290 291 291 290 289 288 288 288 288 288 287 286 286 286 286 286
298 292 292 298 292 290 293 293 296 296 295 294 292 293 289 290 289 293 293 292 295 294 298 291 293 296 296 296 294 290 289 289 288 290 288 287 288 287 287 289 291 289 289 290 290 287 291 289 289 289 289 289 286 283 285 287 285 284 285 286 287 287 286 287 288 289 289 289 290 289 287 289 293 292 291 292 291 289 288 287 287 287 287 287 286 286 286 286
290 294 289 293 292 292 291 294 293 294 291 294 289 291 292 291 289 292 293 293 289 292 299 294 295 296 296 296 295 292 292 294 294 290 290 289 287 287 288 289 287 287 288 289 290 290 291 287 289 287 287 288 286 282 282 283 284 284 285 285 286 287 287 287 288 288 289 289 290 290 289 289 290 288 291 288 287 286 286 286 287 287 286 286 286 286 287 287
295 292 294 290 290 290 291 291 292 292 291 292 290 291 292 292 291 293 293 298 294 292 295 294 296 296 296 295 295 295 298 296 296 293 292 293 291 291 290 289 291 287 287 288 288 288 289 286 283 285 285 286 282 283 282 283 283 283 285 286 284 284 283 286 285 289 288 287 289 288 287 288 292 288 287 287 287 287 288 287 287 287 287 286 287 287 288 288
295 295 294 293 289 294 291 288 290 292 289 293 292 292 292 293 294 294 289 295 297 298 297 297 297 296 291 293 294 296 299 300 296 294 295 296 295 293 294 291 292 289 287 287 287 287 288 286 285 285 284 285 284 286 283 284 285 284 286 288 286 286 288 289 289 290 290 291 287 286 287 293 293 287 287 285 286 286 287 287 287 286 287 287 288 288 289 289
Wind_Speed
6 5 5 3 2 3 2 3 3 3 3 5 5 5 6 6 7 7 7 8 9 9 9 10 11 12 12 12 13 13 12 2 2 1 2 2 0 3 5 5 6 6 5 3 6 8 4 6 8 10 7 4 2 1 2 2 1 2 2 5 4 2 2 3 4 7 1 6 3 1 1 5 1 1 0 2 9 5 3 6 2 7 6 3 1 2 3 3
6 5 4 4 2 3 3 2 2 3 3 4 4 4 5 6 7 7 8 8 9 9 10 10 11 11 12 12 12 12 7 2 3 3 0 1 3 5 5 5 4 5 4 2 6 4 4 7 5 6 5 1 2 1 1 1 2 5 3 5 4 3 1 2 2 4 3 3 4 2 0 5 2 3 1 2 0 1 4 3 2 4 4 4 6 5 6 5
6 5 4 3 3 2 3 2 2 3 3 4 5 4 5 6 7 7 8 8 9 9 10 11 11 11 12 12 12 10 4 1 2 2 0 4 4 5 5 4 3 4 3 1 0 1 0 2 3 2 3 1 5 1 4 3 2 0 4 4 0 5 0 0 2 2 2 7 4 3 0 4 2 1 0 2 3 0 6 6 0 1 4 2 1 4 4 6
5 5 4 3 3 2 1 2 2 2 3 3 4 5 5 6 7 8 9 9 9 9 10 11 11 11 12 12 11 6 1 3 0 2 0 4 4 5 5 3 2 2 1 1 1 0 1 1 1 1 1 5 3 3 5 3 3 1 5 2 3 4 3 1 1 3 4 4 4 3 0 2 2 3 1 5 4 2 4 6 7 10 8 6 3 4 4 5
5 4 4 3 3 2 1 1 2 3 2 3 4 5 5 6 7 9 9 9 10 10 10 11 11 11 11 12 10 1 3 3 3 1 1 4 4 5 5 3 3 1 1 1 1 2 3 3 1 3 3 0 4 2 1 2 1 3 1 2 3 2 1 3 3 5 4 2 6 2 4 4 0 0 2 7 4 5 8 5 5 7 8 8 6 4 3 4
4 3 3 3 1 1 1 1 2 2 3 4 5 5 6 6 7 9 9 10 10 10 10 11 11 12 11 10 1 1 3 0 1 0 3 4 4 5 5 4 5 3 1 4 3 2 6 5 5 2 2 3 2 3 3 0 1 2 1 0 1 3 3 2 1 4 5 2 5 3 3 2 1 1 1 5 5 2 2 4 7 8 7 6 5 5 5 4
4 3 2 2 1 1 1 2 3 3 4 5 5 5 6 7 8 9 9 10 10 10 10 10 10 11 12 3 1 3 2 2 0 2 2 4 5 5 7 6 5 4 5 4 6 4 3 5 5 1 2 2 0 2 1 2 5 7 2 0 0 0 4 5 3 4 2 9 3 2 2 1 1 2 0 2 2 1 3 5 6 6 6 6 7 4 6 5
4 3 2 1 0 1 2 3 4 4 4 5 5 6 7 7 8 9 9 10 10 10 10 10 10 10 8 1 1 2 2 2 2 2 4 3 5 6 7 2 6 3 6 3 1 2 1 5 3 1 5 2 1 1 1 3 5 2 1 1 1 0 1 2 3 3 3 2 2 4 1 3 4 1 2 2 3 2 4 5 7 7 6 5 7 6 5 6
4 4 3 1 1 0 2 3 3 4 5 5 6 6 7 8 8 9 9 9 9 10 9 10 11 10 2 2 2 1 2 1 3 3 1 5 6 7 7 1 5 3 1 2 3 3 3 0 1 1 1 0 0 2 2 1 2 1 1 1 0 1 0 0 1 2 4 1 3 1 3 4 5 2 2 4 5 4 4 6 6 7 7 5 5 5 5 5
5 4 4 3 1 2 2 2 3 4 5 6 6 7 8 8 9 9 9 9 9 9 9 10 11 9 2 2 2 0 2 3 4 2 2 4 6 6 8 2 3 4 1 3 3 5 2 1 2 1 5 2 1 1 0 2 1 2 0 1 1 2 1 1 5 4 2 1 2 3 1 1 3 3 6 1 5 4 5 5 3 7 6 4 4 4 4 5
6 5 5 4 3 3 3 3 3 3 4 6 6 7 7 8 9 9 9 9 9 8 9 9 10 5 1 2 4 5 1 2 1 1 4 5 6 5 1 5 1 2 4 4 4 0 2 2 1 1 2 1 1 2 0 0 2 2 1 1 2 6 3 3 1 3 2 2 4 4 4 1 2 2 6 6 6 5 8 5 4 5 5 4 4 4 2 3
7 6 6 5 5 4 3 3 4 4 4 6 7 7 7 8 9 9 10 9 8 9 9 7 8 1 2 5 3 2 2 3 4 1 1 1 2 3 4 1 2 2 1 1 1 0 1 1 4 1 2 0 1 1 0 0 1 0 1 2 4 6 3 1 6 4 5 3 4 4 1 3 1 5 2 6 7 6 7 6 4 5 4 4 4 3 3 3
8 7 7 6 6 5 4 4 4 4 5 6 7 8 9 9 10 9 9 9 8 8 8 8 5 1 1 1 5 5 2 2 1 2 3 3 2 1 1 1 1 1 1 3 2 0 1 2 4 5 0 3 2 0 1 2 1 1 3 0 5 6 4 3 0 1 7 1 5 2 2 7 6 6 2 6 9 6 6 5 5 4 4 4 4 4 3 2
8 7 7 6 5 5 4 5 6 5 4 5 7 8 9 10 10 9 10 10 10 7 7 7 2 1 2 3 3 2 3 1 2 4 1 1 4 2 3 4 3 3 1 4 1 0 0 1 6 4 1 2 0 0 2 2 3 1 1 3 0 2 2 3 0 3 7 1 4 2 3 8 6 5 2 5 8 12 10 7 6 5 5 4 4 4 4 2
8 6 7 7 7 6 6 6 5 5 6 7 6 7 9 10 10 10 11 9 8 8 7 3 2 1 1 3 1 5 4 0 2 1 1 2 3 2 1 2 4 4 1 3 0 0 2 3 3 2 0 1 1 1 2 3 4 1 2 3 3 2 4 7 1 7 7 1 1 3 1 8 8 6 6 7 7 7 9 8 7 7 6 6 4 5 4 3
9 9 8 7 7 7 6 3 2 5 6 7 6 7 9 10 10 11 11 8 10 6 1 1 3 5 4 2 0 3 1 2 2 3 1 2 2 1 1 2 0 4 2 2 2 2 5 6 5 1 1 2 5 6 4 2 1 4 1 3 1 1 4 6 1 1 3 3 1 5 6 3 4 2 5 5 7 7 7 7 8 8 8 7 6 5 4 4
10 10 9 8 8 7 5 4 3 4 5 5 7 7 9 9 9 11 13 9 3 0 0 0 0 0 1 1 0 0 3 3 2 1 1 0 2 4 4 2 1 1 3 3 7 3 5 3 2 1 4 3 3 5 2 3 4 2 1 3 3 2 1 2 4 1 0 3 3 2 2 6 4 1 4 5 7 6 7 9 9 8 7 6 5 5 5 4
11 11 10 9 9 7 6 5 4 4 5 6 6 7 7 9 10 9 3 3 1 1 1 1 1 1 5 2 2 4 1 2 2 3 2 0 3 4 3 1 1 3 3 2 4 2 2 1 4 4 2 2 1 2 3 4 4 1 1 1 4 1 2 4 0 1 4 0 3 1 5 10 11 5 5 8 6 8 10 11 10 9 7 7 6 6 5 5
11 10 10 9 8 7 5 4 4 4 5 6 8 9 10 8 2 0 2 1 2 2 1 2 3 4 3 5 1 3 1 3 3 5 3 2 1 2 3 3 5 5 1 2 1 1 2 3 5 4 3 1 5 8 9 7 5 3 6 5 2 2 2 2 5 3 8 5 5 5 7 11 11 11 5 6 8 11 12 4 4 6 6 7 7 6 6 5
11 11 11 10 9 8 6 5 4 4 3 3 2 2 2 2 2 0 2 1 4 6 2 5 4 1 1 2 4 1 0 4 5 2 0 1 4 1 2 2 3 5 3 4 0 1 1 3 4 5 9 9 6 9 9 5 4 3 3 2 3 4 5 3 3 4 2 0 6 9 9 8 9 8 9 8 6 7 7 7 7 8 8 8 8 7 7 6
11 11 11 11 10 8 7 6 5 4 4 2 2 1 3 6 6 5 3 6 5 2 1 2 6 3 0 3 3 7 5 1 2 1 3 1 3 7 2 2 1 1 1 3 5 1 4 3 7 10 10 8 9 8 5 0 1 2 1 2 6 2 5 5 0 1 1 4 3 3 4 9 12 11 10 6 5 12 13 11 9 10 10 9 9 8 8 6
11 11 10 10 9 8 7 7 6 3 2 2 0 4 1 2 0 1 3 3 4 11 7 3 3 3 1 3 3 3 5 3 0 1 2 2 4 7 2 4 3 8 1 3 3 2 1 7 10 12 3 3 1 4 4 5 5 3 4 4 2 7 5 8 3 2 1 1 8 5 6 9 9 10 9 6 11 9 12 15 16 15 12 10 9 9 8 6
12 12 11 10 10 9 8 8 5 5 0 1 3 1 2 2 0 2 1 2 4 2 6 5 4 7 4 2 2 1 2 4 7 4 4 3 3 4 6 4 4 2 2 4 8 3 2 6 16 8 4 4 2 2 4 2 2 5 1 2 7 3 1 6 2 2 0 2 3 1 5 9 9 9 14 11 7 5 5 11 11 10 14 15 16 15 13 10
13 13 12 12 10 9 9 7 5 3 3 2 1 4 1 1 2 2 1 2 3 4 5 6 9 4 7 5 5 6 6 4 5 7 3 5 10 3 4 6 5 4 8 9 9 11 10 3 2 5 7 7 5 3 4 4 6 3 6 5 3 3 4 7 5 2 3 2 1 4 7 9 9 13 12 2 2 3 4 3 6 5 6 6 4 5 10 14
14 14 13 11 11 10 9 5 4 3 2 2 4 5 5 1 3 1 1 3 1 4 2 1 4 3 5 3 3 7 2 0 5 4 6 9 6 3 5 2 4 6 6 8 2 3 9 7 2 6 4 5 4 3 6 7 7 4 5 9 8 5 6 4 2 2 5 3 3 2 5 5 4 5 11 6 3 3 2 4 8 7 6 8 10 11 6 5
15 14 14 14 12 11 9 4 3 3 5 6 5 4 6 4 3 1 3 2 6 3 2 6 5 6 6 3 5 3 4 5 3 3 9 7 3 4 2 1 3 8 5 4 7 4 6 3 4 5 5 5 5 5 4 7 7 2 6 8 7 6 4 1 0 3 2 3 2 2 2 10 2 4 4 4 4 9 4 5 7 5 5 7 9 10 10 10
15 15 15 15 15 12 7 5 3 7 2 7 5 5 3 4 2 1 1 3 6 5 8 2 2 2 1 5 9 5 3 7 0 4 5 1 7 0 6 6 1 1 3 2 2 7 3 4 6 2 4 5 4 4 6 10 6 5 2 4 4 4 4 3 2 5 5 0 5 1 2 5 14 5 7 4 4 10 9 10 6 5 6 8 8 9 9 10
17 17 17 16 16 15 1 3 8 6 6 2 1 5 3 5 3 1 3 1 5 3 2 3 2 2 2 5 14 11 2 5 5 4 0 1 1 1 2 8 11 10 4 4 10 2 6 5 5 5 4 5 8 7 3 9 7 3 1 6 4 5 3 4 3 2 0 3 8 1 1 3 7 5 3 1 4 11 16 13 9 9 8 7 7 8 9 10
19 18 18 17 15 15 7 1 4 8 3 0 4 5 4 4 2 6 5 4 1 2 2 4 5 2 3 5 7 2 2 4 2 1 1 2 3 2 4 5 4 5 4 9 11 1 2 6 10 11 9 8 5 1 5 11 6 1 5 7 7 7 6 4 2 2 2 1 8 5 5 4 14 3 2 3 2 10 11 6 7 12 12 9 8 7 8 8
20 20 20 18 11 8 8 4 7 3 3 1 5 6 5 4 3 3 3 7 1 3 1 0 2 6 6 14 6 2 4 1 2 1 1 4 1 2 1 3 4 3 5 2 1 5 1 2 3 4 6 5 5 1 1 3 2 7 5 7 6 8 4 3 6 3 2 6 9 9 10 8 10 2 8 8 8 6 4 2 2 4 6 7 7 10 11 10
22 21 21 19 11 9 5 5 12 6 2 1 7 6 4 3 4 5 6 6 2 1 2 1 2 4 12 14 8 2 3 1 0 6 3 0 1 2 1 3 3 4 1 3 4 4 1 2 1 1 3 4 4 4 4 2 3 6 3 4 5 3 6 4 4 4 1 8 2 9 13 10 11 5 7 7 4 4 4 4 4 7 12 12 10 9 10 10
21 21 23 17 8 8 13 8 8 6 4 2 6 8 6 4 4 8 7 4 2 5 9 5 1 6 12 6 6 11 10 1 3 6 11 8 8 10 10 11 8 4 4 8 7 1 3 3 2 2 3 9 3 7 4 4 2 6 7 7 5 3 4 2 3 2 7 8 1 2 3 2 17 7 5 4 8 8 6 6 6 8 10 10 9 9 9 8
22 22 24 16 11 8 9 1 6 6 5 2 5 4 6 6 10 11 8 6 4 5 4 4 7 10 11 7 6 4 4 8 2 4 4 0 6 9 3 4 4 5 7 3 6 2 6 1 1 3 2 4 8 9 3 1 2 6 8 7 6 1 1 3 6 2 6 6 3 2 1 7 2 7 13 20 13 3 4 6 5 6 10 13 12 10 9 8
22 21 15 14 14 11 8 2 6 10 7 3 6 5 3 7 12 13 17 11 3 2 5 3 5 2 12 11 7 10 5 3 8 5 5 5 5 8 7 7 4 3 5 2 9 8 3 4 7 8 5 4 9 11 13 7 10 9 2 11 9 8 6 5 5 4 6 3 3 4 3 7 5 4 1 5 4 5 4 6 5 4 5 7 8 8 8 9
22 19 15 11 10 8 9 5 8 11 7 7 7 9 15 14 11 13 14 12 1 1 2 3 9 8 5 3 0 5 3 3 5 5 5 8 9 7 10 12 10 5 2 5 3 2 10 6 4 4 2 6 11 1 6 6 3 1 2 6 6 9 7 5 4 3 1 2 3 2 6 4 5 1 4 2 4 3 3 2 2 3 5 9 9 11 11 10
16 11 13 9 14 13 12 9 8 12 12 8 10 11 16 15 14 10 5 6 1 5 4 6 4 5 5 6 2 10 2 3 4 4 3 5 1 8 7 3 11 14 9 10 4 4 3 6 1 4 5 4 4 2 2 5 8 5 6 7 7 2 4 0 2 1 1 2 11 4 8 6 8 6 4 3 2 4 1 1 2 4 5 8 10 10 11 11
9 8 5 12 14 12 13 10 10 11 9 12 12 14 14 9 2 2 2 10 8 14 7 10 7 9 8 8 5 6 5 5 4 6 6 2 5 8 4 6 5 10 12 7 2 3 8 6 1 4 4 1 0 0 2 4 4 8 4 8 2 2 4 4 5 2 1 3 7 3 9 5 1 10 2 0 1 7 4 3 3 4 5 10 9 10 11 12
8 7 12 12 15 15 14 11 11 11 9 13 17 15 4 9 1 1 1 4 4 9 7 11 2 9 4 9 8 7 4 7 7 5 5 7 6 6 10 3 7 14 16 2 3 2 4 3 1 1 1 3 2 1 4 2 3 6 6 3 7 4 2 2 4 3 1 5 6 5 3 8 10 9 2 3 7 10 10 5 4 6 9 10 8 8 7 8
5 5 4 15 11 16 15 14 12 12 11 13 11 14 10 14 2 2 2 1 2 4 10 5 6 4 6 8 4 5 11 10 9 8 6 4 6 5 14 10 6 11 11 7 4 2 1 6 2 1 2 1 1 3 9 4 1 2 2 3 1 3 1 5 7 3 5 4 1 9 3 13 6 7 10 9 12 13 8 5 12 14 13 11 10 10 11 12
4 3 8 7 17 14 14 14 12 9 13 15 14 13 2 10 9 5 8 1 2 4 5 6 2 5 6 7 11 9 7 4 11 10 6 3 9 2 7 8 6 6 13 15 9 4 3 1 5 1 3 1 3 4 10 14 12 2 2 4 1 0 2 4 0 5 5 4 5 4 12 4 6 6 10 12 12 13 12 14 12 11 11 10 10 12 12 12
2 2 2 9 18 16 15 13 13 13 12 8 9 13 8 7 6 10 12 1 1 1 2 2 7 9 5 5 4 4 5 7 6 6 6 4 8 4 6 9 7 8 4 5 7 3 2 2 8 3 1 6 7 3 4 4 5 9 15 14 15 10 5 4 8 1 2 2 6 2 15 6 3 3 8 8 3 3 8 11 11 10 11 12 11 11 12 12
4 7 3 9 16 21 17 16 9 6 6 11 13 12 7 3 0 10 8 6 4 3 2 0 3 4 6 9 9 7 6 7 8 8 6 11 8 5 4 12 10 14 15 10 14 11 6 3 7 5 7 9 5 1 2 3 1 1 3 4 7 8 6 6 8 5 0 6 3 3 1 16 4 3 4 4 4 5 5 7 9 6 9 10 10 10 9 10
8 10 5 7 19 22 15 13 11 11 10 10 2 2 4 1 5 2 10 12 9 4 2 3 5 4 4 4 4 7 12 5 11 11 5 9 7 13 3 10 9 10 10 2 4 0 6 3 4 1 1 2 2 2 1 0 2 1 2 1 5 11 10 9 5 6 7 2 2 1 6 8 2 1 3 3 3 4 5 6 12 6 6 8 10 11 11 9
5 4 1 6 16 17 15 12 13 13 13 4 10 11 5 4 4 6 10 12 10 5 6 2 2 4 2 3 4 8 11 5 8 14 7 4 5 0 4 8 13 9 11 8 11 10 6 4 7 2 2 1 2 2 1 1 1 3 5 7 6 3 3 2 2 1 1 9 9 8 19 1 3 2 3 1 1 2 5 5 5 7 5 8 9 8 9 9
2 1 2 4 11 12 12 8 12 13 16 12 12 16 10 7 7 10 5 8 9 6 2 5 5 2 2 2 4 3 10 17 4 10 8 4 5 1 6 5 9 9 9 2 2 12 9 8 10 9 13 14 10 10 11 9 11 5 0 3 6 12 8 4 7 3 9 2 13 9 16 5 3 3 4 4 3 4 4 4 4 6 8 10 9 9 9 10
7 5 3 5 8 9 11 7 7 12 13 11 10 12 15 13 2 6 9 6 6 8 8 2 2 3 2 2 3 5 8 6 7 2 9 6 3 1 3 4 3 7 4 3 5 8 3 2 11 14 16 16 16 2 1 9 6 7 8 13 12 11 13 10 6 7 13 2 10 17 15 12 9 2 4 5 4 7 7 4 7 6 5 6 9 12 13 13
2 8 5 5 6 13 7 3 7 11 14 13 9 5 13 17 7 0 7 6 8 8 3 4 3 5 6 7 8 6 3 7 1 1 9 10 0 1 2 3 1 4 1 1 4 6 2 4 14 16 17 19 6 3 7 16 14 12 10 12 12 13 12 14 13 14 7 2 20 5 4 14 16 5 8 8 8 6 6 6 5 6 9 12 11 9 8 8
8 4 8 5 6 7 14 14 8 9 10 19 12 8 14 17 13 9 4 12 2 5 5 1 5 14 14 16 10 4 5 5 5 13 3 0 4 0 2 1 2 2 2 1 1 5 7 10 12 9 16 16 3 3 9 6 9 10 14 14 14 15 13 18 19 14 10 12 21 4 14 16 16 10 12 12 10 12 14 14 10 6 3 5 7 10 11 12
5 1 3 7 10 5 12 15 16 13 10 13 9 13 13 17 19 18 10 8 6 4 12 11 18 22 16 11 9 8 6 6 10 7 5 5 7 6 4 1 2 1 1 0 1 1 5 10 7 10 16 12 5 5 5 9 4 2 9 14 17 18 20 20 18 17 16 17 19 11 9 18 16 8 6 10 12 9 3 2 4 7 10 10 10 10 11 11
5 7 4 2 2 7 4 5 6 10 11 11 11 12 12 18 22 17 6 7 8 14 11 17 20 16 16 13 12 12 14 18 17 10 6 7 2 1 6 5 6 1 1 5 4 2 6 4 6 4 6 12 6 4 4 5 6 8 11 14 16 15 16 17 17 15 13 17 23 16 17 26 7 5 9 1 3 5 4 5 8 7 8 10 10 11 10 12
1 1 0 3 8 7 4 6 8 10 10 10 11 10 11 14 20 19 17 16 19 15 15 24 29 21 12 14 13 19 21 18 18 7 8 12 13 7 6 4 7 9 5 3 2 1 2 3 2 3 8 11 4 8 4 3 1 7 16 19 9 7 6 8 13 13 12 20 18 14 20 22 10 5 2 3 6 8 11 10 8 8 10 10 12 12 13 13
0 1 3 1 7 7 10 3 4 7 12 9 11 13 10 17 14 11 7 8 14 17 17 26 25 11 4 11 19 28 27 13 3 5 8 4 4 5 2 3 6 7 6 3 1 4 4 6 5 5 8 11 2 9 7 5 1 8 27 20 14 14 16 17 17 16 19 19 14 17 19 21 9 6 7 5 7 10 9 9 7 5 8 12 14 14 14 14
Wind_Direction
168 156 160 138 126 118 117 74 56 45 39 35 33 23 22 19 16 18 15 12 7 6 1 356 359 354 344 340 342 343 344 80 40 50 91 235 115 298 315 314 318 326 344 24 13 41 347 4 360 342 8 57 302 56 289 49 76 58 60 118 54 162 96 197 172 188 216 131 219 234 170 111 138 340 149 48 33 84 58 68 357 37 46 70 70 63 60 35
169 164 154 159 137 127 122 92 82 58 47 36 33 27 21 15 15 15 13 9 8 3 1 360 355 353 343 335 344 344 355 48 71 70 217 29 344 331 318 318 331 336 318 36 49 53 44 344 336 10 26 45 327 346 27 327 68 88 104 81 164 200 262 156 192 196 129 176 175 207 81 132 193 144 220 92 239 101 59 20 28 73 55 48 39 39 46 54
177 172 169 162 153 149 124 119 92 71 53 33 33 29 20 13 12 13 9 7 6 3 1 357 355 348 341 333 334 345 351 30 52 68 238 10 335 322 315 312 347 24 47 17 325 94 181 262 272 7 13 86 2 293 33 330 59 128 109 75 240 211 251 253 177 176 210 142 130 130 64 109 209 149 269 163 182 98 151 153 264 168 160 119 55 50 49 59
179 174 172 169 167 142 127 95 76 78 56 39 23 26 17 11 9 8 7 5 3 4 360 358 350 345 337 327 333 329 63 62 70 238 296 316 319 311 311 319 12 60 92 143 172 277 211 90 63 90 18 63 311 52 47 315 70 294 68 152 185 190 101 219 169 140 133 126 152 121 119 118 251 217 111 161 109 247 264 220 164 188 173 162 143 101 74 69
178 172 171 165 153 147 104 43 44 42 44 43 32 16 14 10 8 4 4 3 2 0 1 353 349 341 331 326 329 317 69 68 227 241 292 318 332 317 313 324 5 53 75 275 107 46 71 73 75 37 77 236 1 10 79 323 116 75 73 214 161 114 87 230 217 190 133 160 110 116 119 196 106 52 135 156 179 221 208 217 200 158 156 152 143 127 88 87
183 182 165 157 150 101 69 19 12 22 19 22 23 12 9 7 7 4 1 360 360 358 356 355 347 335 331 329 60 77 80 141 239 266 328 326 336 328 312 349 356 24 28 39 60 357 45 348 60 25 9 64 334 96 294 214 3 95 309 360 222 220 139 223 213 219 137 120 134 147 212 72 100 218 191 168 184 235 224 141 146 143 150 147 126 122 109 110
199 193 171 149 127 47 28 5 353 350 1 8 6 6 2 5 2 3 358 357 356 355 355 350 345 335 329 10 71 88 118 262 19 260 349 338 328 330 336 358 5 30 53 51 19 57 22 50 69 42 83 52 301 100 341 350 15 101 160 287 18 161 150 172 195 154 146 117 183 198 75 177 130 223 136 164 305 233 116 114 117 121 122 125 113 123 134 132
205 211 196 163 42 360 341 348 342 341 354 356 356 356 357 358 1 356 356 353 351 353 352 348 341 334 355 60 51 7 33 251 290 278 305 349 351 339 347 18 34 40 54 82 50 40 80 49 65 146 59 115 243 109 323 51 17 82 75 205 263 35 260 205 178 152 149 172 117 96 120 240 179 204 104 231 188 165 129 105 105 112 106 99 112 122 123 120
211 210 226 253 234 270 320 338 341 340 339 346 349 350 352 353 354 351 350 348 349 348 350 347 338 337 309 85 116 58 275 245 216 312 47 20 346 8 19 323 7 65 125 56 32 124 99 265 66 172 226 49 306 86 343 105 329 155 191 160 327 265 315 111 191 209 186 158 141 81 252 277 243 323 228 196 198 187 119 99 115 110 105 114 123 129 130 131
224 222 229 235 260 251 252 313 329 328 328 341 346 345 343 349 347 346 341 344 343 347 347 345 345 326 52 83 48 85 258 281 293 305 65 61 21 23 34 40 25 47 62 336 43 50 77 196 143 164 123 77 97 48 248 83 221 158 193 205 214 262 354 222 193 230 238 272 173 175 266 255 342 154 276 195 198 159 110 118 116 115 121 129 124 116 121 129
223 225 234 229 246 264 279 277 313 315 325 339 339 337 338 341 343 340 338 337 341 343 346 347 351 9 72 79 113 217 263 28 335 339 75 69 58 58 355 347 33 71 94 33 78 348 133 152 187 101 46 220 86 325 70 225 140 110 154 309 318 332 241 216 266 269 98 274 173 169 236 277 313 107 231 184 192 166 142 144 136 124 136 136 130 118 124 112
221 223 227 231 235 255 279 297 298 311 324 334 338 333 332 338 341 335 336 335 336 341 346 351 10 38 76 67 141 209 337 257 317 341 47 77 86 153 212 186 75 139 138 133 350 290 200 158 124 62 200 147 30 356 37 136 70 258 58 333 301 348 353 244 200 203 153 237 152 156 343 297 205 221 263 181 151 159 146 153 156 147 150 144 135 129 127 141
219 218 220 226 236 243 259 275 283 289 319 331 331 331 330 334 334 331 331 338 331 339 346 355 6 57 91 16 240 241 293 301 333 76 44 66 104 40 46 70 94 122 140 129 171 221 207 136 100 79 170 103 171 157 213 74 315 111 38 117 344 358 340 310 288 143 151 247 144 154 290 274 259 245 303 157 148 134 137 165 175 168 160 158 150 145 134 123
213 219 224 225 235 246 262 281 293 285 305 321 324 323 322 325 325 323 329 329 327 331 341 340 65 53 88 237 270 252 300 268 79 47 86 20 86 326 8 0 53 58 74 102 144 172 111 70 99 117 124 93 154 283 47 342 21 180 279 59 142 25 279 297 355 171 153 173 167 81 200 281 270 280 225 181 161 158 175 184 184 175 177 172 167 153 153 176
197 201 215 215 215 222 240 275 298 311 309 307 304 310 318 318 314 312 320 322 322 328 331 25 39 53 58 266 300 299 268 63 44 257 224 118 114 39 357 11 37 15 11 104 103 126 121 69 70 43 90 287 51 78 352 20 352 26 39 297 326 139 276 301 306 153 162 313 102 97 320 247 274 269 190 185 173 171 179 187 189 184 183 181 170 157 151 147
193 197 204 219 220 215 218 232 281 305 318 312 309 309 308 311 309 306 308 300 301 341 10 69 10 107 100 302 246 342 35 130 229 225 254 121 107 158 181 119 356 9 29 349 38 55 36 85 75 188 185 16 56 88 42 30 340 349 126 272 282 83 263 343 79 288 149 120 340 169 216 324 303 297 190 185 177 185 185 195 196 194 188 181 173 163 154 133
189 192 201 211 219 224 218 227 237 278 306 309 305 300 300 302 308 313 295 285 293 250 86 130 23 87 162 257 60 221 227 236 271 67 110 109 148 157 108 53 27 30 29 23 19 51 351 64 292 26 35 114 134 97 71 11 326 312 360 214 205 199 270 281 301 268 229 133 205 259 222 238 233 291 208 206 191 185 204 206 203 198 191 183 171 165 161 155
195 190 194 204 215 218 211 212 226 276 310 309 302 292 292 292 310 333 1 47 83 108 30 157 136 74 290 20 201 235 200 131 161 161 109 250 134 115 97 106 45 73 44 38 356 77 331 55 30 188 4 12 70 65 117 227 199 209 171 295 299 282 214 241 318 243 128 346 194 218 231 261 269 255 226 212 201 200 216 209 201 195 189 182 179 173 170 166
197 191 191 200 211 217 215 218 224 264 286 305 300 289 281 290 301 136 53 351 100 24 25 232 143 153 202 228 211 55 68 215 104 111 194 122 68 109 73 95 87 114 114 63 266 103 356 59 28 42 223 140 203 166 176 211 156 190 170 183 171 188 245 205 237 267 175 199 228 200 223 244 249 261 240 237 213 208 223 210 191 205 197 186 186 180 171 174
193 192 193 198 208 207 216 219 235 248 297 320 345 340 49 47 14 328 339 15 220 184 183 195 168 174 82 33 139 270 215 49 113 274 266 285 116 86 42 85 36 58 110 173 225 166 123 108 166 197 219 210 195 188 196 199 148 114 100 117 204 205 278 287 269 260 187 86 233 230 238 250 265 250 252 226 213 228 232 220 210 202 198 194 190 182 175 172
192 191 191 196 205 204 207 218 232 256 252 268 310 96 169 177 128 248 220 246 263 277 180 255 198 148 239 147 150 151 122 318 52 196 211 140 103 112 213 74 40 120 286 179 139 286 64 112 242 225 219 187 197 201 222 33 128 174 185 181 268 160 252 243 236 340 320 171 289 251 252 258 258 264 252 237 181 225 214 217 217 206 202 196 183 177 177 173
191 191 191 193 197 201 210 218 223 224 233 234 254 159 257 205 174 214 125 266 262 244 241 226 356 296 355 153 222 144 77 89 324 261 273 145 173 140 257 117 160 185 195 108 48 78 143 186 232 231 198 146 109 162 179 197 244 231 203 230 256 263 246 289 266 302 280 129 259 289 276 265 265 264 264 213 209 222 210 205 209 197 195 190 186 176 165 160
189 189 189 184 189 199 209 220 217 215 269 154 201 193 218 235 294 194 99 119 279 269 207 207 238 226 255 332 209 139 143 168 188 215 204 139 127 210 147 124 177 144 112 152 158 153 270 284 246 233 123 149 226 151 155 196 225 220 197 148 226 237 136 285 288 348 319 166 267 22 313 279 273 261 257 246 210 247 220 216 221 198 190 188 189 179 168 166
187 185 185 182 180 191 210 212 213 167 236 257 280 211 232 107 81 63 97 243 275 289 193 216 200 186 200 149 210 146 173 228 112 196 256 137 162 180 125 175 155 119 178 191 181 178 201 218 267 133 161 161 198 195 149 169 233 249 196 192 213 210 236 188 252 315 318 328 61 319 294 279 246 254 264 329 319 262 256 249 230 216 204 182 134 149 171 168
186 181 179 177 182 187 203 183 207 215 130 253 274 247 241 229 56 359 85 336 345 284 274 336 153 220 193 52 110 159 233 18 221 190 174 149 142 106 218 155 101 206 188 201 190 268 266 260 83 105 143 167 169 216 211 169 227 264 230 193 202 188 212 267 353 17 9 333 345 76 322 293 279 256 253 282 342 268 257 206 220 200 175 158 172 175 172 170
184 180 174 173 185 190 161 186 214 139 150 208 220 226 230 233 245 296 91 86 279 258 23 244 144 254 135 194 121 158 79 242 214 189 152 194 138 145 96 182 149 213 195 140 195 210 209 218 156 155 146 168 184 200 231 165 209 178 268 193 204 192 189 170 216 67 292 253 302 35 207 284 287 260 263 259 245 255 267 229 228 201 186 181 180 174 173 168
182 179 174 174 192 172 157 225 130 113 121 266 224 222 208 170 137 148 106 2 304 196 167 258 138 262 22 187 143 115 141 245 69 93 145 256 178 358 137 201 70 357 155 160 24 265 145 230 194 142 141 154 170 214 241 169 162 234 244 149 147 134 170 203 148 178 236 253 297 28 121 267 292 252 243 262 234 265 263 243 226 213 201 198 185 176 171 171
182 179 177 179 196 183 229 114 128 167 211 239 178 156 136 142 112 90 85 38 269 114 145 225 217 346 83 188 153 163 217 158 112 236 18 278 80 335 148 195 181 179 187 122 217 261 153 187 171 194 187 179 202 206 195 155 154 219 182 125 142 160 161 116 116 147 359 22 283 306 339 308 254 274 305 263 248 258 254 243 212 208 209 200 184 178 175 174
181 179 177 182 194 194 227 115 160 204 238 322 109 131 114 115 92 103 127 188 243 96 291 94 281 71 58 108 170 89 132 352 155 196 312 51 34 139 206 214 180 177 201 178 220 238 294 172 201 179 170 212 216 248 168 163 196 254 130 86 78 75 66 94 94 82 331 37 255 188 186 220 274 218 207 345 236 265 259 261 207 207 200 190 180 178 174 170
182 180 177 180 169 192 226 236 236 222 30 48 130 116 101 96 78 92 71 244 109 241 108 222 161 193 153 157 184 26 127 342 39 100 50 155 219 33 23 154 123 142 219 353 333 201 263 294 180 109 197 195 127 82 148 232 164 128 84 66 27 42 31 21 61 83 34 265 247 182 206 171 281 216 197 165 215 205 269 303 279 197 188 190 187 176 173 171
184 179 178 172 182 190 161 215 230 217 259 108 137 116 104 35 141 132 205 223 32 169 50 150 174 95 155 153 170 301 73 74 167 153 135 90 49 56 142 33 47 62 21 332 293 333 1 355 125 269 103 111 107 86 15 73 118 127 93 118 59 342 15 30 344 40 141 264 248 204 195 181 217 292 277 246 267 228 206 239 228 201 199 192 185 182 175 167
185 180 178 177 178 151 187 207 205 167 173 204 141 144 156 135 335 186 225 73 272 208 158 186 245 160 176 172 144 172 167 67 186 169 164 181 168 171 201 180 152 153 264 211 251 23 283 198 253 335 204 136 110 83 360 23 13 85 91 83 132 252 33 299 24 273 207 232 295 32 108 9 242 233 255 280 271 257 222 230 227 206 203 190 184 178 170 164
187 184 179 182 170 197 212 308 129 143 126 176 149 169 172 156 204 215 241 164 246 132 247 115 167 163 168 148 199 156 34 170 197 190 115 53 158 222 242 187 217 139 205 204 190 127 267 292 301 232 347 232 144 148 156 97 224 117 143 152 128 143 222 279 261 262 309 291 274 350 85 256 298 278 237 249 253 263 250 243 242 208 193 186 178 168 163 165
187 182 180 187 189 195 185 139 142 129 129 148 152 166 17 192 220 204 210 210 209 349 99 126 109 91 157 172 198 158 174 249 156 202 164 161 162 206 242 250 194 252 90 130 175 183 223 316 243 148 238 183 183 189 183 158 163 203 97 151 186 147 150 229 188 204 222 222 289 275 124 233 133 243 296 264 296 279 275 257 249 215 182 165 154 149 152 161
187 185 185 177 196 200 186 181 151 136 131 150 157 191 180 207 222 204 213 207 144 88 41 124 130 134 210 330 241 199 128 198 184 130 177 150 202 194 189 210 217 138 154 139 248 82 212 229 268 223 313 152 182 193 109 91 68 233 162 63 95 217 150 229 197 171 250 324 324 204 211 189 184 254 282 281 299 309 344 9 96 101 118 136 147 164 170 171
185 192 179 184 193 193 181 178 169 147 148 163 169 186 205 191 207 201 236 104 125 125 127 64 67 147 199 194 335 195 284 115 202 127 228 214 253 196 213 219 193 188 163 189 161 174 48 265 296 331 41 153 174 126 163 146 192 207 108 195 208 159 146 157 19 38 111 44 255 150 281 289 299 294 248 310 330 294 360 31 100 132 147 152 168 172 174 173
191 176 180 197 197 174 177 174 164 157 163 169 185 203 214 226 220 81 272 183 177 131 139 143 221 165 182 202 189 190 215 77 183 148 222 131 287 209 195 234 172 196 217 125 278 195 156 237 293 98 199 313 160 199 98 31 149 97 184 228 111 94 111 136 228 337 66 206 273 136 229 274 116 273 346 18 303 268 263 230 185 161 167 178 181 178 178 177
187 193 212 201 194 165 172 168 167 161 161 180 201 223 231 251 229 76 330 92 87 150 153 191 245 146 200 168 210 175 215 175 189 177 207 181 240 184 179 186 204 194 205 208 179 243 117 297 298 342 116 291 352 98 32 353 44 152 194 199 129 242 219 292 89 268 247 253 278 276 246 254 189 238 56 237 225 241 234 208 176 194 197 196 182 179 174 164
180 175 225 213 148 168 169 163 178 170 162 191 203 223 225 238 230 288 246 298 173 139 188 219 158 226 143 188 171 171 170 188 168 195 148 223 214 196 185 167 217 204 193 165 201 225 133 190 285 344 122 319 14 130 192 202 336 43 79 88 75 102 167 134 202 177 112 258 49 283 76 259 176 218 185 216 211 223 212 181 216 208 198 188 184 178 176 179
164 177 252 138 158 158 157 164 193 199 182 191 199 228 75 227 227 245 279 200 268 169 221 203 188 148 174 196 159 165 224 178 169 197 189 213 198 278 183 192 167 186 186 186 202 134 207 130 251 294 320 94 192 186 195 169 177 145 121 190 140 314 237 117 336 148 175 184 201 276 296 270 251 209 179 207 205 214 194 206 214 211 201 194 186 180 180 181
160 253 283 157 153 150 151 174 195 203 197 209 208 211 189 211 202 227 237 308 269 317 196 182 168 194 160 130 237 199 165 165 183 188 199 236 186 234 209 180 153 169 141 183 217 187 149 175 201 133 183 225 249 257 236 211 209 192 175 187 180 144 149 167 254 55 134 143 240 165 261 259 267 177 211 204 216 222 217 208 216 209 194 191 186 186 181 180
185 239 237 167 148 145 157 184 202 208 203 190 202 196 205 182 238 211 214 239 219 258 354 180 264 172 162 192 167 183 151 186 194 193 228 206 214 210 241 185 177 151 147 178 199 205 167 135 100 193 212 205 219 282 249 240 110 200 174 225 182 184 143 157 212 238 321 241 119 183 313 272 213 188 201 213 209 228 218 206 232 209 198 191 187 184 185 184
204 227 7 148 155 154 171 197 184 198 211 217 98 24 224 252 221 176 195 213 226 184 226 219 207 171 253 169 176 171 172 203 178 206 194 215 231 204 248 175 136 158 156 209 161 315 108 128 174 207 54 315 311 298 18 94 113 322 309 128 146 205 191 196 193 184 186 174 148 284 246 266 315 311 269 240 239 253 263 214 225 206 182 186 182 179 179 174
202 224 52 144 173 167 178 190 188 197 220 196 187 221 185 232 193 201 210 201 204 165 204 190 334 215 210 146 145 189 184 212 214 202 231 209 236 181 128 175 163 172 167 200 167 191 154 244 161 145 331 333 350 336 335 360 101 208 200 208 203 209 234 191 93 101 277 212 166 154 247 162 269 338 308 321 349 304 254 246 216 208 184 180 184 179 173 170
84 58 154 201 187 188 203 180 192 190 206 202 190 208 202 226 217 221 184 215 214 219 155 226 197 151 196 167 178 178 195 200 207 210 211 192 228 52 330 174 211 186 205 242 218 168 180 157 156 184 211 227 226 202 200 197 201 188 189 132 178 196 197 170 244 168 235 192 161 215 249 211 283 310 306 311 324 299 267 242 233 208 181 175 173 172 172 172
187 225 177 174 209 217 219 223 192 184 203 200 206 215 204 218 202 186 198 234 210 222 217 104 358 168 165 137 193 197 212 243 223 199 189 216 205 305 218 332 223 219 222 179 176 156 152 216 185 193 206 223 236 228 138 101 64 187 209 183 203 200 204 202 229 218 219 126 205 226 238 267 267 260 274 271 251 240 259 237 214 206 196 184 172 175 179 179
125 214 156 200 153 236 243 178 204 178 198 180 215 158 202 215 197 296 180 226 208 209 200 189 165 179 214 197 210 220 185 200 283 150 205 201 270 216 320 127 352 12 309 143 183 96 91 174 213 209 213 228 193 151 186 164 181 200 174 205 198 196 193 196 210 227 116 172 258 187 197 249 253 216 232 238 247 255 247 228 223 210 189 186 187 176 167 172
213 208 193 179 175 192 221 236 200 219 213 179 206 169 197 204 199 208 176 226 100 173 195 319 216 220 207 203 199 206 180 199 167 219 144 51 101 348 76 339 194 317 352 252 308 161 162 205 218 198 230 235 192 135 168 175 183 182 193 192 194 203 194 202 220 218 162 210 247 160 196 237 248 222 226 215 209 214 217 215 210 196 154 142 151 169 178 180
208 27 216 172 213 203 208 218 210 209 214 188 215 195 195 201 204 207 191 186 191 203 194 220 219 221 213 205 191 213 189 191 237 218 161 183 182 143 162 12 257 47 80 147 202 207 146 223 205 184 226 234 212 149 176 169 177 176 208 204 200 196 204 205 218 214 207 233 247 239 230 244 243 228 217 226 219 212 209 121 132 164 178 172 171 177 180 182
211 182 228 253 241 228 197 198 197 195 230 183 204 209 203 200 208 206 201 155 181 219 198 225 233 220 212 204 195 214 213 215 220 200 204 153 226 222 202 186 149 72 156 180 173 258 148 245 123 149 219 242 216 112 147 166 171 221 229 220 212 204 206 205 215 223 220 242 243 244 254 256 239 158 216 306 92 123 127 168 189 182 164 173 174 178 181 186
272 100 175 149 210 216 184 156 164 188 208 198 208 217 223 214 216 198 205 192 190 192 185 214 226 219 203 200 206 224 225 218 225 207 163 168 198 211 154 231 147 156 163 140 149 265 167 231 40 124 201 246 159 165 160 142 189 243 255 232 197 174 192 209 221 214 196 224 232 238 247 255 242 192 94 180 164 170 189 193 184 186 177 167 176 182 187 193
87 137 75 16 234 192 208 150 181 158 219 190 193 208 211 221 224 188 218 230 224 218 203 213 225 206 197 195 212 222 226 219 181 144 178 198 77 111 119 151 146 143 156 139 360 144 184 127 155 176 190 234 191 157 152 109 7 308 253 232 172 203 203 216 221 212 207 213 219 222 237 242 238 160 167 204 190 203 204 192 182 168 174 177 182 186 192 193